This is the latest recevied weather packets stored in our database for station/object SQ7IQO. If no packets are shown the sender has not sent any weather packets the latest 10 day(s).
| Time | Temp. | Humidity | Pressure | Rain* | Wind** | Luminosity | Snow |
|---|---|---|---|---|---|---|---|
| 1788097484 | 27.22° C | 42% | 1015.3 hPa | 0 mm | 0 m/s | - | - |
| 1788097423 | 27.22° C | 42% | 1015.3 hPa | 0 mm | 0 m/s | - | - |
| 1788097363 | 27.78° C | 40% | 1015.3 hPa | 0 mm | 0 m/s | - | - |
| 1788097303 | 28.33° C | 40% | 1015.3 hPa | 0 mm | 0 m/s | - | - |
| 1788097243 | 29.44° C | 39% | 1015.3 hPa | 0 mm | 0.45 m/s, ° | - | - |
| 1788097183 | 30° C | 37% | 1015.3 hPa | 0 mm | 0.45 m/s, ° | - | - |
| 1788097123 | 30° C | 38% | 1015.3 hPa | 0 mm | 0.45 m/s, ° | - | - |
| 1788097063 | 30° C | 39% | 1015.3 hPa | 0 mm | 0.45 m/s, ° | - | - |
| 1788097003 | 30° C | 39% | 1015.3 hPa | 0 mm | 0 m/s | - | - |
| 1788096943 | 29.44° C | 40% | 1015.3 hPa | 0 mm | 0 m/s | - | - |
| 1788096823 | 28.89° C | 40% | 1015.2 hPa | 0 mm | 0 m/s | - | - |
| 1788096763 | 29.44° C | 39% | 1015.3 hPa | 0 mm | 0.45 m/s, ° | - | - |
| 1788096703 | 29.44° C | 39% | 1025.8 hPa | 0 mm | 0.45 m/s, ° | - | - |
| 1788096643 | 29.44° C | 38% | 1015.2 hPa | 0 mm | 0 m/s | - | - |
| 1788096583 | 29.44° C | 38% | 1015.2 hPa | 0 mm | 0 m/s | - | - |
| 1788096523 | 29.44° C | 39% | - | 0 mm | 0 m/s | - | - |
| 1788096463 | 29.44° C | 40% | 1015.3 hPa | 0 mm | 0 m/s | - | - |
| 1788096403 | 29.44° C | 40% | 1015.3 hPa | 0 mm | 0 m/s | - | - |
| 1788096343 | 29.44° C | 39% | 1015.3 hPa | 0 mm | 0 m/s | - | - |
| 1788096283 | 29.44° C | 40% | 1015.3 hPa | 0 mm | 0 m/s | - | - |
| 1788096223 | 28.89° C | 40% | 1015.3 hPa | 0 mm | 0 m/s | - | - |
| 1788096163 | 28.89° C | 40% | 1015.3 hPa | 0 mm | 0 m/s | - | - |
| 1788096103 | 28.89° C | 40% | 1015.3 hPa | 0 mm | 0 m/s | - | - |
| 1788096043 | 28.89° C | 40% | 1049.2 hPa | 0 mm | 0 m/s | - | - |
| 1788095983 | 29.44° C | 40% | 1029.6 hPa | 0 mm | 0.89 m/s, ° | - | - |
* Rain latest hour (hover to see other rain measurements)
** Current wind speed in m/s (hover to see current wind gust speed)